Location: Pescara
(42.4670°N, 14.2170°E)
Time: 17:07:59
(UTC+02:00)

ISS - Pass Details

Date: 16 May 2021
Orbit: 417 x 422 km, 51.6° (Epoch: 18 June)

Event Time Altitude Azimuth Distance (km) Brightness Sun altitude
Rises 01:15:24 0° 300° (WNW) 2,370 0.4 -28.3°
Reaches altitude 10° 01:18:00 10° 321° (NW) 1,507 -0.4 -28.3°
Maximum altitude 01:20:22 18° 5° (N) 1,132 -0.8 -28.2°
Drops below altitude 10° 01:22:44 10° 50° (NE) 1,508 -0.4 -28.2°
Sets 01:25:21 0° 70° (ENE) 2,373 0.4 -28.1°
